Weather History for KPYM - September, 2012

Change the Weather History Date:

Thursday, September 13, 2012

  Actual Average Record
Temperature  
Mean Temperature 66 °F -  
Max Temperature 79 °F 74 °F 91 °F (1957)
Min Temperature 54 °F 51 °F 38 °F (1967)
Cooling Degree Days 2    
Growing Degree Days 16 (Base 50)    
Moisture  
Dew Point 58 °F    
Average Humidity 77    
Maximum Humidity 93    
Minimum Humidity 48    
Precipitation  
Precipitation 0.01 in - - ()
Sea Level Pressure  
Sea Level Pressure 30.34 in    
Wind  
Wind Speed 3 mph (SSW)    
Max Wind Speed 13 mph    
Max Gust Speed 18 mph    
Visibility 10 miles    
Events      
Averages and records for this station are not official NWS values.
T = Trace of Precipitation, MM = Missing Value Source: NWS Daily Summary

Daily Weather History Graph

Daily Weather History Graph

Search for Another Location

Airport or City:

Trip Planner

Search our weather history database for the weather conditions in past years. The results will help you decide how hot, cold, wet, or windy it might be!

Date:

Astronomy

Sep. 13, 2012 Rise Set
Actual Time 6:21 AM EDT 6:55 PM EDT
Civil Twilight 5:53 AM EDT 7:23 PM EDT
Nautical Twilight 5:20 AM EDT 7:56 PM EDT
Astronomical Twilight 4:46 AM EDT 8:30 PM EDT
Moon 3:35 AM EDT (9/13) 5:17 PM EDT (9/13)
Length of Visible Light 13h 29m
Length of Day
12h 33m
Waning Crescent, 7% of the Moon is Illuminated
Sep 13
Waning Crescent
Sep 15
New
Sep 22
First Quarter
Sep 29
Full
Oct 8
Last Quarter

Hourly Weather History & Observations

Time (EDT) Temp. Dew Point Humidity Pressure Visibility Wind Dir Wind Speed Gust Speed Precip Events Conditions
12:52 AM 57.9 °F 55.9 °F 93% 30.37 in 6.0 mi Calm Calm - N/A   Clear
1:52 AM 59.0 °F 55.9 °F 90% 30.37 in 10.0 mi Calm Calm - N/A   Clear
2:52 AM 57.0 °F 55.0 °F 93% 30.36 in 10.0 mi Calm Calm - N/A   Clear
3:52 AM 55.9 °F 54.0 °F 93% 30.36 in 10.0 mi Calm Calm - 0.01 in   Clear
4:52 AM 54.0 °F 52.0 °F 93% 30.36 in 10.0 mi Calm Calm - N/A   Clear
5:52 AM 54.0 °F 52.0 °F 93% 30.37 in 10.0 mi Calm Calm - N/A   Clear
6:52 AM 55.0 °F 53.1 °F 93% 30.38 in 10.0 mi Calm Calm - N/A   Clear
7:52 AM 62.1 °F 57.9 °F 86% 30.38 in 10.0 mi SW 3.5 mph - N/A   Clear
8:52 AM 66.0 °F 59.0 °F 78% 30.38 in 10.0 mi SSW 6.9 mph - N/A   Clear
9:52 AM 71.1 °F 61.0 °F 70% 30.38 in 10.0 mi WSW 8.1 mph - N/A   Clear
10:52 AM 73.0 °F 61.0 °F 66% 30.37 in 10.0 mi SW 8.1 mph - N/A   Clear
11:52 AM 75.9 °F 60.1 °F 58% 30.36 in 10.0 mi SW 10.4 mph - N/A   Clear
12:52 PM 78.1 °F 57.9 °F 50% 30.35 in 10.0 mi SSW 6.9 mph 17.3 mph N/A   Clear
1:52 PM 79.0 °F 57.9 °F 48% 30.32 in 10.0 mi WSW 12.7 mph 18.4 mph N/A   Clear
2:52 PM 77.0 °F 61.0 °F 58% 30.31 in 10.0 mi South 8.1 mph - N/A   Partly Cloudy
3:52 PM 75.9 °F 60.1 °F 58% 30.31 in 10.0 mi SSW 10.4 mph 16.1 mph N/A   Clear
4:52 PM 73.9 °F 59.0 °F 59% 30.30 in 10.0 mi South 10.4 mph 16.1 mph N/A   Clear
5:52 PM 71.1 °F 59.0 °F 66% 30.30 in 10.0 mi SSW 6.9 mph - N/A   Clear
6:52 PM 68.0 °F 57.9 °F 70% 30.30 in 10.0 mi South 4.6 mph - N/A   Clear
7:52 PM 66.0 °F 57.9 °F 75% 30.30 in 10.0 mi South 3.5 mph - N/A   Clear
8:52 PM 64.0 °F 59.0 °F 84% 30.30 in 10.0 mi South 3.5 mph - N/A   Clear
9:52 PM 63.0 °F 59.0 °F 87% 30.30 in 10.0 mi Calm Calm - N/A   Clear
10:52 PM 62.1 °F 59.0 °F 90% 30.30 in 10.0 mi Calm Calm - N/A   Clear
11:52 PM 60.1 °F 57.0 °F 90% 30.30 in 10.0 mi SW 4.6 mph - N/A   Clear